Weather in Zarbdar

Uzbekistan     40°05′15″N   68°09′51″E
temp.,
°C
wind,
m/s
gust,
m/s
humid.,
%
clouds,
%
prec.,
mm/h
press.,
hPa
HPBL,
m
15 may, sat
sat1523:00+17wsw57490 0.0 1013107
02:00+16wsw58500 0.0 1013158
05:00+15sw47450 0.0 101297
08:00+19wnw56390 0.0 1013727
11:00+22nw44300 0.0 10121041
14:00+25nw33230 0.0 10111306
17:00+26w23230 0.0 10101406
20:00+21s443271 0.0 101031
16 may, sun
sun1623:00+19sw343770 0.0 101142
02:00+17wsw33420 0.0 101138
05:00+15wsw22440 0.0 101114
08:00+18nnw22350 0.0 1013294
11:00+23n21290 0.0 1012704
14:00+27n22240 0.0 10111170
17:00+28ene11230 0.1 10101317
20:00+22s11330 0.0 101011
17 may, mon
mon1723:00+20s33390 0.0 101024
02:00+19ssw32420 0.0 101115
05:00+18sw22400 0.0 101111
08:00+22nnw11360 0.0 1012211
11:00+27nne22284 0.0 1012755
14:00+31nnw32205 0.0 10102045
17:00+31sse221996 0.0 10092577
20:00+23sse712343 0.0 1010197
18 may, tue
tue1823:00+22s33340 0.0 100926
02:00+21s33350 0.0 100920
05:00+20s32360 0.0 100915
08:00+26sw01280 0.0 1009205
11:00+31nne33210 0.0 10081419
14:00+33n341615 0.0 10073515
17:00+29se992699 0.0 1006629
20:00+24s58335 0.0 100794
19 may, wed
wed1923:00+22s43350 0.0 100734
02:00+21s43320 0.0 100732
05:00+20s33321 0.0 100718
08:00+27s22264 0.0 1007190
11:00+32nnw34132 0.0 10072791
14:00+34nnw46117 0.0 10054124
17:00+33nw451133 0.0 10053205
20:00+25sw332125 0.0 100617